Date String (YYYY-MM-DD hh:mm:ss) UTC,Instrument flags,Ambient pressure (hPa),Sample flow (lpm),Bypass flow (lpm),Sample temperature (°C),Ambient temperature (°C),ASC tube jacket temperature (°C),LED temperature (°C),Box temperature (°C),Sample RH (%),Span deviation,Mass concentration (μg/m³),Mass concentration (μg/m³),Mass concentration (μg/m³)
DateTimeUTC,F1_M11,P_M11,Q1_M11,Q2_M11,T1_M11,T2_M11,T3_M11,T4_M11,T5_M11,U1_M11,ZSPAN_M11,X0_M11,X2_M11,X1_M11
2022-11-19 06:00:00,,0829.5,5.01,0.00,22.1,22.0,00.0,30.8,24.0,08.6,0000.0,0014.68,0010.53,0009.71
2022-11-19 06:01:00,,0829.5,4.99,0.00,22.1,21.6,00.0,30.9,24.0,08.6,0000.0,0015.10,0010.71,0009.81
2022-11-19 06:02:00,,0829.5,5.00,0.00,22.1,21.2,00.0,30.9,23.9,08.6,0000.0,0015.34,0010.82,0009.88
2022-11-19 06:03:00,,0829.5,5.01,0.00,22.0,20.9,00.0,30.9,23.8,08.6,0000.0,0015.65,0010.95,0009.97
2022-11-19 06:04:00,,0829.5,5.01,0.00,22.0,20.7,00.0,30.9,23.7,08.5,0000.0,0015.56,0010.91,0009.97
2022-11-19 06:05:00,,0829.6,5.00,0.00,21.9,20.5,00.0,30.9,23.6,08.4,0000.0,0015.46,0010.78,0009.85
2022-11-19 06:06:00,,0829.7,5.00,0.00,21.9,20.4,00.0,30.9,23.6,08.4,0000.0,0015.54,0010.71,0009.78
2022-11-19 06:07:00,,0829.7,5.01,0.00,21.9,21.1,00.0,30.8,23.7,08.4,0000.0,0015.57,0010.58,0009.66
2022-11-19 06:08:00,,0829.7,5.00,0.00,22.0,22.0,00.0,30.8,23.9,08.3,0000.0,0015.49,0010.40,0009.50
2022-11-19 06:09:00,,0829.6,5.00,0.00,22.1,22.4,00.0,30.8,24.1,08.3,0000.0,0015.15,0010.22,0009.35
2022-11-19 06:10:00,,0829.7,4.99,0.00,22.1,22.0,00.0,30.9,24.0,08.2,0000.0,0014.87,0009.99,0009.14
2022-11-19 06:11:00,,0829.8,5.00,0.00,22.1,21.5,00.0,31.0,23.9,08.2,0000.0,0014.77,0009.70,0008.93
2022-11-19 06:12:00,,0829.6,5.00,0.00,22.1,21.0,00.0,31.0,23.8,08.2,0000.0,0014.30,0009.46,0008.77
2022-11-19 06:13:00,,0829.5,5.01,0.00,22.0,20.7,00.0,31.0,23.7,08.3,0000.0,0013.90,0009.29,0008.67
2022-11-19 06:14:00,,0829.6,5.00,0.00,22.0,20.4,00.0,31.0,23.6,08.3,0000.0,0013.86,0009.16,0008.57
2022-11-19 06:15:00,,0829.5,5.00,0.00,21.9,20.2,00.0,30.9,23.6,08.4,0000.0,0014.35,0009.20,0008.58
2022-11-19 06:16:00,,0829.6,4.99,0.00,21.9,20.1,00.0,30.9,23.5,08.4,0002.7,0014.81,0009.34,0008.68
2022-11-19 06:17:00,,0829.6,5.01,0.00,21.9,20.8,00.0,30.9,23.6,08.5,0003.2,0014.94,0009.42,0008.73
2022-11-19 06:18:00,,0829.6,5.00,0.00,22.0,21.8,00.0,30.8,23.9,08.5,0003.4,0014.87,0009.47,0008.78
2022-11-19 06:19:00,,0829.5,4.98,0.00,22.1,21.9,00.0,30.9,24.0,08.4,0003.5,0015.05,0009.53,0008.83
2022-11-19 06:20:00,,0829.6,5.02,0.00,22.1,21.5,00.0,30.9,23.9,08.4,0003.5,0015.36,0009.60,0008.90
2022-11-19 06:21:00,,0829.6,4.99,0.00,22.0,21.1,00.0,30.9,23.9,08.4,0004.0,0015.58,0009.72,0008.98
2022-11-19 06:22:00,,0829.6,5.00,0.00,22.0,20.8,00.0,30.9,23.8,08.4,0003.7,0015.31,0009.83,0009.06
2022-11-19 06:23:00,,0829.8,5.01,0.00,22.0,20.6,00.0,30.9,23.7,08.4,0004.0,0015.65,0009.88,0009.11
2022-11-19 06:24:00,,0829.8,4.99,0.00,21.9,20.4,00.0,30.9,23.6,08.4,0003.5,0015.97,0009.88,0009.10
2022-11-19 06:25:00,,0829.7,5.00,0.00,21.9,20.2,00.0,30.9,23.5,08.4,0002.6,0016.13,0009.88,0009.08
2022-11-19 06:26:00,,0829.7,5.01,0.00,21.9,20.9,00.0,30.8,23.7,08.4,0001.8,0015.76,0009.83,0008.99
2022-11-19 06:27:00,,0829.6,5.00,0.00,22.0,21.9,00.0,30.8,23.9,08.4,0001.5,0015.61,0009.74,0008.92
2022-11-19 06:28:00,,0829.7,4.99,0.00,22.1,22.5,00.0,30.8,24.1,08.3,0000.7,0015.30,0009.56,0008.78
2022-11-19 06:29:00,,0829.6,5.00,0.00,22.2,22.1,00.0,30.9,24.1,08.2,0000.7,0015.03,0009.37,0008.61
2022-11-19 06:30:00,,0829.7,5.01,0.00,22.1,21.6,00.0,30.9,24.0,08.2,0000.1,0014.40,0009.23,0008.45
2022-11-19 06:31:00,,0829.7,5.00,0.00,22.1,21.1,00.0,31.0,23.9,08.2,-000.4,0013.95,0009.05,0008.28
2022-11-19 06:32:00,,0829.7,4.99,0.00,22.1,20.8,00.0,31.0,23.8,08.2,-000.3,0013.70,0008.88,0008.14
2022-11-19 06:33:00,,0830.0,5.02,0.00,22.0,20.5,00.0,31.0,23.7,08.2,-000.0,0013.49,0008.74,0008.02
2022-11-19 06:34:00,,0829.7,5.00,0.00,22.0,20.3,00.0,30.9,23.6,08.2,0000.0,0013.06,0008.62,0007.88
2022-11-19 06:35:00,,0829.7,5.00,0.00,21.9,20.2,00.0,30.9,23.6,08.3,0000.0,0012.78,0008.49,0007.74
2022-11-19 06:36:00,,0829.8,5.00,0.00,21.9,20.7,00.0,30.9,23.6,08.2,0000.0,0012.20,0008.30,0007.59
2022-11-19 06:37:00,,0829.8,5.00,0.00,22.0,21.6,00.0,30.8,23.8,08.1,0000.0,0011.71,0008.04,0007.39
2022-11-19 06:38:00,,0829.8,4.99,0.00,22.1,22.4,00.0,30.8,24.0,08.1,0000.0,0011.16,0007.81,0007.20
2022-11-19 06:39:00,,0829.8,4.99,0.00,22.2,22.2,00.0,30.9,24.1,08.0,0000.0,0010.97,0007.69,0007.08
2022-11-19 06:40:00,,0829.8,5.01,0.00,22.1,21.7,00.0,30.9,24.0,08.0,0000.0,0010.84,0007.60,0006.97
2022-11-19 06:41:00,,0829.9,5.00,0.00,22.1,21.3,00.0,31.0,23.9,08.1,0000.0,0010.67,0007.52,0006.91
2022-11-19 06:42:00,,0829.9,4.99,0.00,22.1,21.0,00.0,31.0,23.8,08.1,0000.0,0010.65,0007.50,0006.89
2022-11-19 06:43:00,,0829.8,5.01,0.00,22.0,20.7,00.0,31.0,23.8,08.2,0000.0,0010.65,0007.49,0006.89
2022-11-19 06:44:00,,0829.8,5.00,0.00,22.0,20.6,00.0,31.0,23.7,08.2,0000.0,0010.65,0007.49,0006.89
2022-11-19 06:45:00,,0829.8,4.99,0.00,21.9,20.4,00.0,31.0,23.7,08.2,0000.0,0010.86,0007.50,0006.90
2022-11-19 06:46:00,,0829.8,5.02,0.00,21.9,20.7,00.0,30.9,23.7,08.3,0000.0,0010.64,0007.49,0006.92
2022-11-19 06:47:00,,0829.8,5.00,0.00,22.0,21.7,00.0,30.9,23.9,08.2,0000.0,0010.52,0007.51,0006.95
2022-11-19 06:48:00,,0829.8,4.99,0.00,22.1,22.2,00.0,30.9,24.1,08.2,0000.0,0010.64,0007.60,0007.04
2022-11-19 06:49:00,,0829.8,5.00,0.00,22.2,21.8,00.0,30.9,24.1,08.2,0000.0,0010.82,0007.74,0007.16
2022-11-19 06:50:00,,0829.8,5.02,0.00,22.1,21.5,00.0,31.0,24.0,08.2,0000.0,0010.88,0007.85,0007.27
2022-11-19 06:51:00,,0829.9,4.98,0.00,22.1,21.2,00.0,31.0,24.0,08.2,0000.0,0010.89,0007.93,0007.39
2022-11-19 06:52:00,,0829.9,5.01,0.00,22.1,20.9,00.0,31.0,23.9,08.2,0000.0,0011.05,0008.04,0007.50
2022-11-19 06:53:00,,0829.9,5.00,0.00,22.1,20.8,00.0,31.0,23.9,08.3,0000.0,0011.22,0008.11,0007.57
2022-11-19 06:54:00,,0829.8,5.00,0.00,22.0,20.6,00.0,31.0,23.8,08.3,0000.0,0011.28,0008.18,0007.63
2022-11-19 06:55:00,,0829.8,5.00,0.00,22.0,20.5,00.0,31.0,23.8,08.3,0000.0,0011.31,0008.23,0007.67
2022-11-19 06:56:00,,0829.8,5.00,0.00,22.0,21.2,00.0,30.9,23.9,08.3,0000.0,0011.20,0008.30,0007.73
2022-11-19 06:57:00,,0829.8,5.01,0.00,22.1,22.2,00.0,30.9,24.1,08.3,0000.0,0011.33,0008.38,0007.79
2022-11-19 06:58:00,,0829.8,4.99,0.00,22.2,22.7,00.0,31.0,24.2,08.2,0000.0,0011.46,0008.48,0007.90
2022-11-19 06:59:00,,0829.7,4.98,0.00,22.3,22.3,00.0,31.0,24.2,08.2,0000.0,0011.65,0008.57,0007.98
